Simultaneous Nadir Overpasses (SNOs) Predictions

Prediction of SNOs between METOP-A and TERRA Satellite Orbit:

Table of predicted SNOs for the next 14.0 days since TLE Epoch: 8/3/2012
Index Date (METOP-A) Time (METOP-A) METOP-A Lat,Lon Date (TERRA) Time (TERRA) TERRA Lat,Lon Distance(km) Time Diff (sec)
1 08/04/2012 15:24:51 81.30, -4.46 08/04/2012 15:25:47 81.31, -4.29 2.90 56
2 08/04/2012 16:15:30 -81.31, 163.57 08/04/2012 16:15:13 -81.32, 163.61 1.10 17
3 08/07/2012 10:59:14 81.31, 62.14 08/07/2012 11:00:00 81.31, 62.11 0.58 46
4 08/07/2012 11:49:53 -81.32,-129.82 08/07/2012 11:49:26 -81.32,-129.95 2.25 27
5 08/10/2012 06:33:36 81.31, 128.65 08/10/2012 06:34:11 81.32, 128.77 2.18 35
6 08/10/2012 07:24:16 -81.31, -63.70 08/10/2012 07:23:38 -81.31, -63.64 1.04 38
7 08/13/2012 02:07:59
